Regional Weather Roundup
Issued by NWS Portland, ME

Current Version | Previous Version | Text Only | Print | Product List | Glossary Off
Versions: 1 2 3 4 5 6 7 8 9 10 11 12 13 14 15 16 17 18 19 20 21 22 23 24 25 26 27 28 29 30 31 32 33 34 35 36 37 38 39 40 41 42 43 44 45 46 47 48 49 50
000 ASUS41 KGYX 211905 RWRGYX WEATHER ROUNDUP FOR MAINE AND NEW HAMPSHIRE NATIONAL WEATHER SERVICE GRAY ME 300 PM EDT TUE MAY 21 2019 MEZ002-005-006-010-012-015-018-020-021-024-026-027-029-212000- MAINE CITY SKY/WX TMP DP RH WIND PRES REMARKS PORTLAND PTSUNNY 62 35 36 NW21G32 29.72S SANFORD CLOUDY 58 36 43 W23G32 29.78R BAR HARBOR PTSUNNY 60 37 42 NW15G30 29.61S WISCASSET PTSUNNY 60 35 39 W10G26 29.70F ROCKLAND FAIR 60 38 43 W25G31 29.65R FRYEBURG PTSUNNY 57 37 47 NW13G25 29.77S LEWISTONAUBURN CLOUDY 57 36 45 NW22G31 29.73R AUGUSTA CLOUDY 55 39 54 W9G23 29.71R WATERVILLE FAIR 57 36 45 W21G31 29.65F BANGOR PTSUNNY 60 36 40 NW24G33 29.61F GREENVILLE N/A 47 38 71 NW18G37 29.61S MILLINOCKET PTSUNNY 56 38 50 W16G28 29.61R HOULTON LGT RAIN 48 44 86 NW12 29.56R PRESQUE ISLE CLOUDY 48 41 76 NW17G28 29.58R FRENCHVILLE LGT RAIN 45 38 76 NW21G30 29.58R CARIBOU LGT RAIN 47 42 83 NW12G23 29.57R $$ NHZ002-005-008-009-011-012-014-212000- NEW HAMPSHIRE CITY SKY/WX TMP DP RH WIND PRES REMARKS PORTSMOUTH PTSUNNY 64 34 32 NW24G36 29.75R ROCHESTER CLOUDY 61 36 39 W21G30 29.78R NASHUA FAIR 67 36 31 W24G32 29.79R MANCHESTER FAIR 65 33 30 NW23G32 29.78R CONCORD PTSUNNY 61 35 37 W21G33 29.79R LACONIA PTSUNNY 57 37 47 W15G21 29.79F PLYMOUTH FAIR 58 38 47 W14G25 29.79F BERLIN LGT RAIN 49 38 65 W13G25 29.75S WHITEFIELD CLOUDY 49 39 68 W15G23 29.79S JAFFREY PTSUNNY 60 33 36 N14G24 29.84R KEENE PTSUNNY 62 36 37 N18G30 29.85R LEBANON PTSUNNY 60 39 45 NW10G17 29.84R MT WASHINGTON SNOWSHWR 27 27 100 W71G85 N/A VSB 1/16WCI 4 $$ VTZ005-007-008-212000- VERMONT CITY SKY/WX TMP DP RH WIND PRES REMARKS ST JOHNSBURY N/A 53 37 54 MISG 29.80S MONTPELIER CLOUDY 51 36 56 NW15G30 29.87F BURLINGTON PTSUNNY 60 37 42 NW23G30 29.87S $$ MAZ007-012-024-CTZ003-RIZ002-NYZ038-NYZ072-212000- SOUTHERN NEW ENGLAND AND NY CITY SKY/WX TMP DP RH WIND PRES REMARKS BOSTON FAIR 71 35 26 W26G40 29.76S WORCESTER FAIR 62 37 39 NW26G43 29.81S NANTUCKET FAIR 61 48 62 SW18G26 29.78S PROVIDENCE FAIR 69 40 34 NW16G23 29.79F HARTFORD FAIR 68 37 32 NW23G35 29.86S ALBANY FAIR 65 41 41 W16G32 29.93F NEW YORK CITY FAIR 70 37 29 NW21G32 29.90F $$ ANZ081-ANZ082-ANZ150-NHZ014-MEZ023>029-212000- COASTAL MARINE OBSERVATIONS STATION/POSITION TIME TEMP WIND PRES WAVE AIR SEA DIR/SP/G HT/PER (UTC) (F) (DEG/KT/KT) (MB) (FT/S) ISLE OF SHOALS 1800 60 300/ 28/ 32 1006.0R JEFFREYS LEDGE 1838 48 N/A 4/ 4 CASHES LEDGE BUO 1850 55 47 1005.8R 4/ 5 GEORGES BANK BUO 1850 49 45 270/ 16/ 19 1007.7R 5/ 6 $$ .............KEY.............. WCI - WIND CHILL TC - TEMPERATURE IN CELSIUS VSB - VISIBILITY IN MILES HX - HEAT INDEX FAIR- INDICATES FEW OR NO CLOUDS BELOW 12,000 FT, WITH NO SIGNIFICANT WEATHER AND/OR OBSTRUCTIONS TO VISIBILITY.

USA.gov is the U.S. government's official web portal to all federal, state and local government web resources and services.